W7YP Weather Reports


time (UTC)temp
C
wind
direction
speed
KPH
gust
KPH
rain 1hr
cm
rain 24hr
cm
rain mn
cm
humidity
%
barometer
mb
20260901225022 25 126 0.0 0.0 0.00 0.00 0.00 61 1010.1
20260901224745 25 126 0.0 0.0 0.00 0.00 0.00 60 1010.1
20260901224012 25 126 0.0 0.0 0.00 0.00 0.00 62 1010.2
20260901223513 26 126 0.0 0.0 0.00 0.00 0.00 60 1010.3
20260901223013 26 126 0.0 0.0 0.00 0.00 0.00 58 1010.3
20260901222513 26 126 0.0 0.0 0.00 0.00 0.00 58 1010.3
20260901222014 26 126 0.0 0.0 0.00 0.00 0.00 52 1010.3
20260901221513 26 126 0.0 0.0 0.00 0.00 0.00 49 1010.5
20260901221233 26 126 0.0 0.0 0.00 0.00 0.00 50 1010.5
20260901220509 26 126 0.0 0.0 0.00 0.00 0.00 49 1010.6
20260901220009 26 126 0.0 0.0 0.00 0.00 0.00 52 1010.6
20260901215509 26 126 0.0 0.0 0.00 0.00 0.00 46 1010.6
20260901215004 26 126 0.0 0.0 0.00 0.00 0.00 44 1010.7
20260901214733 26 126 0.0 1.6 0.00 0.00 0.00 41 1010.8
20260901214002 26 126 0.0 1.6 0.00 0.00 0.00 35 1010.8
20260901213500 26 126 0.0 0.0 0.00 0.00 0.00 42 1010.9
20260901213000 26 126 0.0 0.0 0.00 0.00 0.00 40 1011.0
20260901212500 26 126 0.0 6.4 0.00 0.00 0.00 40 1011.0
20260901212000 26 126 1.6 6.4 0.00 0.00 0.00 41 1011.1
20260901211712 26 167 0.0 0.0 0.00 0.00 0.00 41 1011.2
20260901210946 26 167 0.0 1.6 0.00 0.00 0.00 42 1011.2
20260901210703 26 167 0.0 1.6 0.00 0.00 0.00 42 1011.4
20260901205946 25 167 0.0 1.6 0.00 0.00 0.00 46 1011.5
20260901205445 25 167 0.0 1.6 0.00 0.00 0.00 42 1011.5
20260901204946 25 167 0.0 6.4 0.00 0.00 0.00 43 1011.6
20260901204444 25 167 1.6 6.4 0.00 0.00 0.00 43 1011.7
20260901203934 25 141 0.0 1.6 0.00 0.00 0.00 42 1011.7
20260901203424 25 165 0.0 6.4 0.00 0.00 0.00 45 1011.8
20260901202919 25 165 0.0 6.4 0.00 0.00 0.00 46 1011.8
20260901202417 24 272 0.0 1.6 0.00 0.00 0.00 44 1011.9
20260901201917 24 275 0.0 0.0 0.00 0.00 0.00 46 1011.9
20260901201417 23 275 0.0 1.6 0.00 0.00 0.00 49 1012.0
20260901200917 23 275 0.0 4.8 0.00 0.00 0.00 50 1012.0
20260901200417 23 275 1.6 4.8 0.00 0.00 0.00 49 1012.1
20260901195913 23 142 0.0 4.8 0.00 0.00 0.00 51 1012.2
20260901195413 23 142 0.0 4.8 0.00 0.00 0.00 48 1012.4
20260901194907 23 142 0.0 1.6 0.00 0.00 0.00 48 1012.4
20260901194408 23 142 0.0 3.2 0.00 0.00 0.00 49 1012.5
20260901194131 22 143 0.0 3.2 0.00 0.00 0.00 48 1012.5
20260901193405 22 143 0.0 1.6 0.00 0.00 0.00 49 1012.6
20260901193122 22 142 0.0 1.6 0.00 0.00 0.00 48 1012.6
20260901192403 22 143 0.0 4.8 0.00 0.00 0.00 51 1012.8
20260901191859 22 143 1.6 4.8 0.00 0.00 0.00 49 1012.9
20260901191343 22 144 0.0 3.2 0.00 0.00 0.00 51 1012.9
20260901190838 21 142 0.0 4.8 0.00 0.00 0.00 53 1013.0
20260901190333 21 142 0.0 4.8 0.00 0.00 0.00 50 1013.1
20260901185833 21 125 0.0 1.6 0.00 0.00 0.00 52 1013.4
20260901185551 21 125 0.0 1.6 0.00 0.00 0.00 52 1013.5
20260901184829 21 125 0.0 6.4 0.00 0.00 0.00 53 1013.5
20260901184325 20 125 0.0 6.4 0.00 0.00 0.00 53 1013.6
20260901183824 20 123 0.0 1.6 0.00 0.00 0.00 56 1013.7
20260901183325 20 124 0.0 1.6 0.00 0.00 0.00 53 1013.8
20260901182819 20 124 0.0 1.6 0.00 0.00 0.00 54 1013.8
20260901182305 20 124 0.0 4.8 0.00 0.00 0.00 55 1013.9
20260901181805 19 124 0.0 4.8 0.00 0.00 0.00 55 1014.0
20260901181305 19 126 0.0 3.2 0.00 0.00 0.00 55 1014.1
20260901180803 19 129 0.0 3.2 0.00 0.00 0.00 57 1014.1
20260901180527 18 111 0.0 3.2 0.00 0.00 0.00 58 1014.3
20260901175756 18 110 0.0 4.8 0.00 0.00 0.00 57 1014.4
20260901175256 18 111 1.6 4.8 0.00 0.00 0.00 58 1014.4
20260901174756 18 111 0.0 3.2 0.00 0.00 0.00 60 1014.4
20260901174256 17 105 0.0 0.0 0.00 0.00 0.00 63 1014.5
20260901173757 17 105 0.0 1.6 0.00 0.00 0.00 60 1014.5
20260901173252 17 105 0.0 1.6 0.00 0.00 0.00 60 1014.5
20260901173247 17 102 0.0 4.8 0.00 0.00 0.00 62 1014.6
20260901172254 16 102 1.6 4.8 0.00 0.00 0.00 60 1014.7
20260901172009 16 145 0.0 3.2 0.00 0.00 0.00 64 1014.6
20260901171252 16 144 0.0 3.2 0.00 0.00 0.00 64 1014.7
20260901170747 16 157 0.0 4.8 0.00 0.00 0.00 63 1014.7
20260901170509 16 109 0.0 4.8 0.00 0.00 0.00 66 1014.8
20260901165742 15 109 1.6 4.8 0.00 0.00 0.00 64 1014.8
20260901165237 15 108 0.0 3.2 0.00 0.00 0.00 68 1014.9
20260901164739 15 106 0.0 1.6 0.00 0.00 0.00 68 1014.8
20260901164239 15 106 0.0 3.2 0.00 0.00 0.00 74 1014.8
20260901163738 14 106 0.0 3.2 0.00 0.00 0.00 72 1014.8
20260901163239 14 89 0.0 3.2 0.00 0.00 0.00 74 1014.9
20260901162736 14 88 0.0 3.2 0.00 0.00 0.00 78 1014.9
20260901162229 13 82 0.0 4.8 0.00 0.00 0.00 78 1014.9
20260901161952 13 78 0.0 4.8 0.00 0.00 0.00 78 1015.0
20260901161224 12 76 0.0 4.8 0.00 0.00 0.00 81 1015.1
20260901160724 12 76 0.0 4.8 0.00 0.00 0.00 81 1015.3
20260901160227 12 60 0.0 0.0 0.00 0.00 0.00 84 1015.3
20260901155949 11 60 0.0 3.2 0.00 0.00 0.00 87 1015.4
20260901155212 11 60 0.0 3.2 0.00 0.00 0.00 87 1015.4
20260901154700 11 59 0.0 0.0 0.00 0.00 0.00 89 1015.5
20260901154159 10 59 0.0 0.0 0.00 0.00 0.00 91 1015.5
20260901154136 10 59 0.0 1.6 0.00 0.00 0.00 93 1015.5
20260901153200 10 59 0.0 1.6 0.00 0.00 0.00 95 1015.6
20260901152700 9 59 0.0 3.2 0.00 0.00 0.00 97 1015.6
20260901152155 9 59 0.0 3.2 0.00 0.00 0.00 97 1015.6
20260901151915 9 26 0.0 3.2 0.00 0.00 0.00 97 1015.6
20260901151146 8 26 0.0 1.6 0.00 0.00 0.00 97 1015.6
20260901150641 8 26 0.0 0.0 0.00 0.00 0.00 97 1015.6
20260901150141 8 26 0.0 1.6 0.00 0.00 0.00 97 1015.6
20260901145641 8 26 0.0 1.6 0.00 0.00 0.00 97 1015.7
20260901145141 7 25 0.0 0.0 0.00 0.00 0.00 97 1015.7
20260901144639 7 25 0.0 0.0 0.00 0.00 0.00 97 1015.7
20260901144131 7 25 0.0 0.0 0.00 0.00 0.00 97 1015.7
20260901143632 7 25 0.0 0.0 0.00 0.00 0.00 97 1015.7
20260901143134 7 25 0.0 0.0 0.00 0.00 0.00 97 1015.7
20260901142622 7 25 0.0 0.0 0.00 0.00 0.00 97 1015.6
20260901142340 7 25 0.0 0.0 0.00 0.00 0.00 97 1015.7
20260901141612 7 25 0.0 0.0 0.00 0.00 0.00 96 1015.5
20260901141113 6 25 0.0 0.0 0.00 0.00 0.00 96 1015.6
20260901140608 6 25 0.0 0.0 0.00 0.00 0.00 96 1015.6
20260901140325 6 25 0.0 0.0 0.00 0.00 0.00 96 1015.6
20260901135828 6 25 0.0 0.0 0.00 0.00 0.00 96 1015.6
20260901135058 6 25 0.0 0.0 0.00 0.00 0.00 96 1015.6
20260901134554 6 25 0.0 0.0 0.00 0.00 0.00 96 1015.6
20260901134053 6 25 0.0 0.0 0.00 0.00 0.00 96 1015.6
20260901133554 6 25 0.0 0.0 0.00 0.00 0.00 96 1015.6
20260901133049 6 25 0.0 0.0 0.00 0.00 0.00 96 1015.4
20260901132548 6 25 0.0 0.0 0.00 0.00 0.00 96 1015.5
20260901132048 6 25 0.0 0.0 0.00 0.00 0.00 96 1015.4
20260901131549 6 25 0.0 0.0 0.00 0.00 0.00 96 1015.3
20260901131045 6 25 0.0 0.0 0.00 0.00 0.00 96 1015.4
20260901130539 6 25 0.0 0.0 0.00 0.00 0.00 96 1015.4
20260901130258 6 25 0.0 0.0 0.00 0.00 0.00 96 1015.3
20260901125800 6 25 0.0 0.0 0.00 0.00 0.00 96 1015.3
20260901125035 6 25 0.0 0.0 0.00 0.00 0.00 96 1015.3
20260901124530 6 25 0.0 0.0 0.00 0.00 0.00 96 1015.3
20260901124249 6 25 0.0 0.0 0.00 0.00 0.00 96 1015.3
20260901123520 6 25 0.0 0.0 0.00 0.00 0.00 96 1015.3
20260901123010 6 25 0.0 0.0 0.00 0.00 0.00 96 1015.3
20260901122505 6 25 0.0 0.0 0.00 0.00 0.00 95 1015.3
20260901122001 6 25 0.0 0.0 0.00 0.00 0.00 95 1015.3
20260901121716 6 25 0.0 0.0 0.00 0.00 0.00 95 1015.3
20260901120956 6 25 0.0 0.0 0.00 0.00 0.00 95 1015.4
20260901120451 6 25 0.0 0.0 0.00 0.00 0.00 96 1015.3
20260901115946 6 25 0.0 0.0 0.00 0.00 0.00 96 1015.4
20260901115702 6 25 0.0 0.0 0.00 0.00 0.00 96 1015.3
20260901114946 6 25 0.0 0.0 0.00 0.00 0.00 95 1015.3
20260901114446 6 25 0.0 0.0 0.00 0.00 0.00 95 1015.3
20260901113941 6 25 0.0 0.0 0.00 0.00 0.00 95 1015.3
20260901113442 6 25 0.0 0.0 0.00 0.00 0.00 95 1015.1
20260901112937 6 25 0.0 0.0 0.00 0.00 0.00 95 1015.1
20260901112434 6 25 0.0 0.0 0.00 0.00 0.00 95 1015.3
20260901111932 6 25 0.0 0.0 0.00 0.00 0.00 95 1015.3
20260901111432 6 25 0.0 0.0 0.00 0.00 0.00 95 1015.4
20260901110932 6 25 0.0 0.0 0.00 0.00 0.00 95 1015.4
20260901110428 6 25 0.0 0.0 0.00 0.00 0.00 95 1015.4
20260901105925 6 25 0.0 0.0 0.00 0.00 0.00 95 1015.4
20260901105410 7 25 0.0 0.0 0.00 0.00 0.00 95 1015.4
20260901104902 7 25 0.0 0.0 0.00 0.00 0.00 95 1015.5
20260901104357 7 25 0.0 0.0 0.00 0.00 0.00 95 1015.4
20260901104124 7 25 0.0 0.0 0.00 0.00 0.00 95 1015.4
20260901103358 7 25 0.0 0.0 0.00 0.00 0.00 95 1015.3
20260901102858 7 25 0.0 0.0 0.00 0.00 0.00 95 1015.3
20260901102354 7 25 0.0 0.0 0.00 0.00 0.00 95 1015.3
20260901101853 7 25 0.0 0.0 0.00 0.00 0.00 95 1015.3
20260901101609 7 25 0.0 0.0 0.00 0.00 0.00 95 1015.1
20260901100852 7 25 0.0 0.0 0.00 0.00 0.00 95 1015.3
20260901100828 7 25 0.0 0.0 0.00 0.00 0.00 95 1015.4
20260901095834 7 25 0.0 0.0 0.00 0.00 0.00 95 1015.4
20260901095334 7 25 0.0 0.0 0.00 0.00 0.00 94 1015.4
20260901094824 7 25 0.0 0.0 0.00 0.00 0.00 94 1015.4
20260901094324 7 25 0.0 0.0 0.00 0.00 0.00 94 1015.4
20260901093824 7 25 0.0 0.0 0.00 0.00 0.00 94 1015.4
20260901093315 7 25 0.0 0.0 0.00 0.00 0.00 94 1015.4
20260901093040 7 25 0.0 0.0 0.00 0.00 0.00 94 1015.3
20260901092259 7 25 0.0 0.0 0.00 0.00 0.00 94 1015.4
20260901091800 7 25 0.0 0.0 0.00 0.00 0.00 94 1015.3
20260901091749 7 25 0.0 0.0 0.00 0.00 0.00 94 1015.3
20260901090803 7 25 0.0 0.0 0.00 0.00 0.00 94 1015.1
20260901090740 7 25 0.0 0.0 0.00 0.00 0.00 94 1015.3
20260901085740 7 25 0.0 0.0 0.00 0.00 0.00 94 1015.3
20260901085241 7 25 0.0 0.0 0.00 0.00 0.00 94 1015.1
20260901084735 7 25 0.0 0.0 0.00 0.00 0.00 94 1015.1
20260901084236 7 25 0.0 0.0 0.00 0.00 0.00 94 1015.3
20260901083736 7 25 0.0 0.0 0.00 0.00 0.00 94 1015.3
20260901083236 7 25 0.0 0.0 0.00 0.00 0.00 94 1015.1
20260901082731 8 25 0.0 0.0 0.00 0.00 0.00 94 1015.3
20260901082231 8 25 0.0 0.0 0.00 0.00 0.00 93 1015.3
20260901081933 8 25 0.0 0.0 0.00 0.00 0.00 93 1015.3
20260901081156 8 25 0.0 0.0 0.00 0.00 0.00 93 1015.3
20260901080659 8 25 0.0 0.0 0.00 0.00 0.00 93 1015.1
20260901080152 8 25 0.0 0.0 0.00 0.00 0.00 93 1015.3
20260901075652 8 25 0.0 0.0 0.00 0.00 0.00 93 1015.3
20260901075152 8 25 0.0 0.0 0.00 0.00 0.00 93 1015.3
20260901074652 8 25 0.0 0.0 0.00 0.00 0.00 93 1015.1
20260901074153 8 25 0.0 0.0 0.00 0.00 0.00 93 1015.4
20260901073859 8 25 0.0 0.0 0.00 0.00 0.00 92 1015.4
20260901073137 8 25 0.0 0.0 0.00 0.00 0.00 92 1015.5
20260901072627 8 25 0.0 0.0 0.00 0.00 0.00 92 1015.5
20260901072122 8 25 0.0 0.0 0.00 0.00 0.00 92 1015.5
20260901071843 8 25 0.0 0.0 0.00 0.00 0.00 92 1015.5
20260901071122 8 25 0.0 0.0 0.00 0.00 0.00 92 1015.6
20260901070626 8 25 0.0 0.0 0.00 0.00 0.00 92 1015.7
20260901070113 8 25 0.0 0.0 0.00 0.00 0.00 92 1015.7
20260901065604 8 25 0.0 0.0 0.00 0.00 0.00 92 1015.6
20260901065104 8 25 0.0 0.0 0.00 0.00 0.00 92 1015.5
20260901064558 8 25 0.0 0.0 0.00 0.00 0.00 92 1015.5
20260901064059 8 25 0.0 0.0 0.00 0.00 0.00 92 1015.6
20260901063558 8 25 0.0 0.0 0.00 0.00 0.00 92 1015.6
20260901063059 8 25 0.0 0.0 0.00 0.00 0.00 91 1015.7
20260901062545 8 25 0.0 0.0 0.00 0.00 0.00 91 1015.7
20260901062309 8 25 0.0 0.0 0.00 0.00 0.00 91 1015.5
20260901061534 9 25 0.0 0.0 0.00 0.00 0.00 91 1015.6
20260901061234 9 25 0.0 0.0 0.00 0.00 0.00 91 1015.7
20260901061115 9 25 0.0 0.0 0.00 0.00 0.00 91 1015.7
20260901060030 9 25 0.0 0.0 0.00 0.00 0.00 91 1015.8
20260901055750 9 25 0.0 0.0 0.00 0.00 0.00 91 1015.7
20260901055025 9 25 0.0 0.0 0.00 0.00 0.00 90 1015.7
20260901054510 9 25 0.0 0.0 0.00 0.00 0.00 91 1015.6
20260901054010 9 25 0.0 0.0 0.00 0.00 0.00 90 1015.6
20260901053506 9 25 0.0 0.0 0.00 0.00 0.00 91 1015.7
20260901053005 9 25 0.0 0.0 0.00 0.00 0.00 90 1015.7
20260901052448 9 25 0.0 0.0 0.00 0.00 0.00 90 1015.7
20260901051945 9 25 0.0 0.0 0.00 0.00 0.00 90 1015.7
20260901051446 9 25 0.0 0.0 0.00 0.00 0.00 90 1015.7
20260901050949 9 25 0.0 0.0 0.00 0.00 0.00 90 1015.8
20260901050701 10 25 0.0 0.0 0.00 0.00 0.00 90 1015.8
20260901045924 10 25 0.0 0.0 0.00 0.00 0.00 90 1015.9
20260901045651 10 25 0.0 0.0 0.00 0.00 0.00 90 1015.9
20260901044916 10 25 0.0 0.0 0.00 0.00 0.00 90 1015.9
20260901044419 10 25 0.0 0.0 0.00 0.00 0.00 90 1015.9
20260901044120 10 25 0.0 0.0 0.00 0.00 0.00 90 1016.0
20260901043357 10 25 0.0 0.0 0.00 0.00 0.00 89 1015.9
20260901042857 10 25 0.0 0.0 0.00 0.00 0.00 89 1016.0
20260901042355 10 25 0.0 0.0 0.00 0.00 0.00 89 1016.0
20260901041850 10 25 0.0 0.0 0.00 0.00 0.00 89 1015.9
20260901041347 10 25 0.0 0.0 0.00 0.00 0.00 89 1015.9
20260901041332 10 25 0.0 0.0 0.00 0.00 0.00 88 1015.9
20260901040343 10 25 0.0 0.0 0.00 0.00 0.00 88 1016.0
20260901035838 10 25 0.0 0.0 0.00 0.00 0.00 88 1015.8
20260901035328 10 25 0.0 0.0 0.00 0.00 0.00 87 1015.8
20260901034828 10 25 0.0 0.0 0.00 0.00 0.00 87 1015.8
20260901034328 10 25 0.0 0.0 0.00 0.00 0.00 87 1015.7
20260901033828 10 25 0.0 0.0 0.00 0.00 0.00 87 1015.8
20260901033329 11 25 0.0 0.0 0.00 0.00 0.00 87 1015.8
20260901032823 11 25 0.0 0.0 0.00 0.00 0.00 87 1015.8
20260901032321 11 25 0.0 0.0 0.00 0.00 0.00 87 1015.6
20260901031806 11 25 0.0 0.0 0.00 0.00 0.00 87 1015.6
20260901031254 11 25 0.0 0.0 0.00 0.00 0.00 86 1015.5
20260901031013 11 25 0.0 0.0 0.00 0.00 0.00 86 1015.5
20260901030254 11 25 0.0 0.0 0.00 0.00 0.00 86 1015.5
20260901030018 11 25 0.0 1.6 0.00 0.00 0.00 86 1015.5
20260901025505 11 25 0.0 1.6 0.00 0.00 0.00 86 1015.4
20260901024745 11 26 0.0 0.0 0.00 0.00 0.00 85 1015.4
20260901024242 12 26 0.0 0.0 0.00 0.00 0.00 85 1015.4
20260901023727 12 26 0.0 0.0 0.00 0.00 0.00 85 1015.4
20260901023441 12 26 0.0 0.0 0.00 0.00 0.00 84 1015.4
20260901022714 12 26 0.0 0.0 0.00 0.00 0.00 83 1015.3
20260901022215 12 26 0.0 0.0 0.00 0.00 0.00 83 1015.3
20260901021718 12 26 0.0 0.0 0.00 0.00 0.00 83 1015.4
20260901021215 12 26 0.0 0.0 0.00 0.00 0.00 83 1015.4
20260901020705 13 26 0.0 3.2 0.00 0.00 0.00 83 1015.5
20260901020208 13 26 0.0 3.2 0.00 0.00 0.00 81 1015.4
20260901015705 13 24 0.0 0.0 0.00 0.00 0.00 80 1015.5
20260901015206 13 24 0.0 0.0 0.00 0.00 0.00 79 1015.5
20260901014656 13 24 0.0 0.0 0.00 0.00 0.00 79 1015.5
20260901014156 14 24 0.0 0.0 0.00 0.00 0.00 79 1015.6
20260901013922 14 24 0.0 0.0 0.00 0.00 0.00 78 1015.6
20260901013152 15 24 0.0 0.0 0.00 0.00 0.00 78 1015.7
20260901012909 15 24 0.0 0.0 0.00 0.00 0.00 78 1015.6
20260901012147 15 24 0.0 0.0 0.00 0.00 0.00 78 1015.6
20260901011642 15 24 0.0 0.0 0.00 0.00 0.00 77 1015.6
20260901011135 16 24 0.0 0.0 0.00 0.00 0.00 75 1015.7
20260901010630 16 24 0.0 0.0 0.00 0.00 0.00 73 1015.7
20260901010357 17 24 0.0 0.0 0.00 0.00 0.00 72 1015.7
20260901005622 17 24 0.0 0.0 0.00 0.00 0.00 70 1015.7
20260901005125 18 24 0.0 0.0 0.00 0.00 0.00 66 1015.7
20260901004602 18 24 0.0 0.0 0.00 0.00 0.00 64 1015.8
20260901004058 18 24 0.0 0.0 0.00 0.00 0.00 62 1015.8
20260901003556 19 24 0.0 0.0 0.00 0.00 0.00 60 1015.8
20260901003053 20 24 0.0 0.0 0.00 0.00 0.00 60 1015.9
20260901002553 20 24 0.0 0.0 0.00 0.00 0.00 59 1015.9
20260901002056 20 24 0.0 0.0 0.00 0.00 0.00 61 1015.9
20260901001551 20 24 0.0 0.0 0.00 0.00 0.00 59 1016.0
20260901001039 20 24 0.0 0.0 0.00 0.00 0.00 59 1015.9
20260901000534 21 24 0.0 0.0 0.00 0.00 0.00 57 1015.9
20260901000031 21 24 0.0 1.6 0.00 0.00 0.00 54 1015.9
20260831235524 21 24 0.0 1.6 0.00 0.00 0.00 53 1015.9
20260831235024 21 26 0.0 4.8 0.00 0.00 0.00 51 1015.9
20260831234524 21 26 0.0 4.8 0.00 0.00 0.00 49 1016.0
20260831234024 21 325 0.0 3.2 0.00 0.00 0.00 52 1015.9
20260831233520 21 325 0.0 3.2 0.00 0.00 0.00 48 1016.0
20260831233240 21 201 0.0 4.8 0.00 0.00 0.00 45 1016.0
20260831233114 21 328 0.0 4.8 0.00 0.00 0.00 47 1016.0
20260831232020 21 161 0.0 3.2 0.00 0.00 0.00 46 1016.2
20260831231520 21 317 0.0 4.8 0.00 0.00 0.00 47 1016.3
20260831231020 21 317 0.0 8.0 0.00 0.00 0.00 46 1016.3
20260831230516 21 344 3.2 8.0 0.00 0.00 0.00 46 1016.4
20260831230241 21 304 1.6 8.0 0.00 0.00 0.00 45 1016.4
20260831225517 21 331 0.0 1.6 0.00 0.00 0.00 46 1016.5